Regional Weather Roundup
Issued by NWS

Home | Current Version | Previous Version | Graphics & Text | Print | Product List | Glossary On
Versions: 1 2 3 4 5 6 7 8 9 10 11 12 13 14 15 16 17 18 19 20 21 22 23 24 25 26 27 28 29 30 31 32 33 34 35 36 37 38 39 40 41 42 43 44 45 46 47 48 49 50
000
ASUS43 KLOT 241410
RWRIL

ILLINOIS REGIONAL WEATHER ROUNDUP
NATIONAL WEATHER SERVICE CHICAGO/ROMEOVILLE IL
800 AM CST MON NOV 24 2014

NOTE: "FAIR" INDICATES FEW OR NO CLOUDS BELOW 12,000 FEET WITH NO
SIGNIFICANT WEATHER AND/OR OBSTRUCTIONS TO VISIBILITY.

* THESE STATIONS ARE NOT UNDER NWS QUALITY CONTROL. THEY ALSO MAY NOT
  REPORT WEATHER SUCH AS PRECIPITATION OR FOG.

ILZ001-002-007-009-015-016-024-241500-
NORTHWEST ILLINOIS

CITY           SKY/WX    TMP DP  RH WIND       PRES   REMARKS
MOLINE         LGT SNOW  31  28  89 W20G33    29.32R VSB 3/4 WCI  19
STERLING*      CLOUDY    34  30  86 W23G29    29.24R WCI  22
SAVANNA*       LGT SNOW  33  32  95 W16G23    29.24R VSB 3/4 WCI  22
$$

ILZ003-004-008-010-011-017-018-241500-
NORTH CENTRAL ILLINOIS

CITY           SKY/WX    TMP DP  RH WIND       PRES   REMARKS
ROCKFORD       LGT RAIN  39  36  89 W17G24    29.17R FOG     WCI  30
FREEPORT*      CLOUDY    35  34  96 W15       29.19R FOG     WCI  25
ROCHELLE*      LGT RAIN  36  36  99 W18       29.19R WCI  26
DE KALB*       CLOUDY    38  37  97 W20       29.15R WCI  28
PERU*          LGT SNOW  34  33  94 W23G32    29.24R WCI  22
$$

ILZ005-006-012>014-019>023-241500-
NORTHEAST ILLINOIS

CITY           SKY/WX    TMP DP  RH WIND       PRES   REMARKS
CHICAGO-OHARE  LGT RAIN  45  44  97 W15       29.10R FOG
CHICAGO-MIDWAY RAIN      48  46  93 SW21      29.11R FOG
AURORA         LGT RAIN  40  37  89 W20G31    29.17R FOG
LANSING*       RAIN      44  44  98 W18       29.12R
JOLIET*        LGT RAIN  37  35  94 W15G25    29.18R WCI  28
WAUKEGAN       CLOUDY    46  45  96 SW3       29.07R FOG
DUPAGE AIRPORT LGT RAIN  42  39  89 W18G25    29.14R FOG
KANKAKEE*      LGT RAIN  38  37  93 W29G39    29.19R WCI  26
WHEELING       LGT RAIN  47  45  93 W8        29.10R FOG
MORRIS*        RAIN      37  37  99 W24G31    29.18R WCI  25
ROMEOVILLE*    RAIN      38  38 100 W25G33    29.16R WCI  27
NORTHERLY ISL    N/A     48  46  93 SW8         N/A
$$

LMZ740>746-241500-
SOUTHERN LAKE MICHIGAN

STATION/POSITION SKY/WX   TEMP    WIND        PRES    VSBY  WAVE
                          AIR SEA DIR/SP/G                  HT/PER
                          (F)     (DEG/KT/KT) (MB)    (MI)  (FT/S)
SOUTHERN BUOY              44 42  210/ 10/ 12  984.3S         1/ 3
WAUKEGAN HARBOR            47     270/ 10/ 12   N/A
HARRISON CRIB              48     250/  8/ 10   N/A
BURNHAM HARBOR             48     240/  8/  9   N/A
CALUMET HARBOR             48     220/  7/ 12  984.6R
MICHIGAN CITY              49     220/  7/  8   N/A
$$

ILZ025>027-034>036-040-047-049-050-058-095>099-241500-
WEST-CENTRAL ILLINOIS

CITY           SKY/WX    TMP DP  RH WIND       PRES   REMARKS
QUINCY         CLOUDY    33  26  75 W21G35    29.49R WCI  21
GALESBURG*     LGT SNOW  32  30  94 W21G29    29.37R WCI  19
MACOMB*        CLOUDY    32  31  94 W31G39    29.43R WCI  18
JACKSONVILLE*  CLOUDY    37  32  84 W23       29.47R WCI  25
PITTSFIELD*    CLOUDY    35  30  81 W16G25    29.50R WCI  25
$$

ILZ028>032-037-038-041>044-048-051>054-059>061-241500-
CENTRAL ILLINOIS

CITY           SKY/WX    TMP DP  RH WIND       PRES   REMARKS
PONTIAC        LGT SNOW  34  34  98 W28G35    29.26R WCI  21
BLOOMINGTON    LGT SNOW  32  32 100 W26G35    29.32R VSB 3/4 WCI  18
DECATUR        CLOUDY    35  34  96 W23G37    29.39R WCI  23
PEORIA         LGT SNOW  34  30  85 W18G31    29.35R VSB 3/4 WCI  23
LACON*         SNOW      32  31  94 W15G22    29.30R VSB 1/2 WCI  22
LINCOLN*       LGT SNOW  35  33  95 W10G22    29.38R WCI  27
SPRINGFIELD    CLOUDY    36  31  82 W26G33    29.44R WCI  24
TAYLORVILLE    CLOUDY    34  32  93 W21G31    29.45R WCI  22
$$

ILZ033-039-045-046-055>057-062-063-241500-
EAST-CENTRAL ILLINOIS

CITY           SKY/WX    TMP DP  RH WIND       PRES   REMARKS
CHAMPAIGN      PTSUNNY   35  35 100 W30G39    29.33R WCI  22
DANVILLE*      CLOUDY    38  35  91 W28G41    29.27R WCI  26
RANTOUL*       MIX PCPN  37  34  90 W29G39    29.30R WCI  24
MATTOON        CLOUDY    36  34  92 W22G32    29.41R WCI  25
PARIS*         CLOUDY    38  36  92 W31G41    29.38R WCI  26
$$

ILZ079-100>102-241500-
SOUTHWEST ILLINOIS

CITY           SKY/WX    TMP DP  RH WIND       PRES   REMARKS
ALTON          CLOUDY    37  32  81 W17G40    29.53R WCI  28
BELLEVILLE     CLOUDY    40  39  97 W18       29.55R
CAHOKIA*       CLOUDY    42  35  76 W15G23    29.56R
SPARTA*        CLOUDY    40  34  77 W18G31    29.59R
$$

ILZ064>066-069>071-074>076-080>082-084>086-088>090-092>094-241500-
SOUTH-CENTRAL ILLINOIS

CITY           SKY/WX    TMP DP  RH WIND       PRES   REMARKS
CARBONDALE     CLOUDY    42  35  76 W13       29.61R
CAIRO*         CLOUDY    46  36  67 W13       29.68R
EFFINGHAM*     CLOUDY    38  32  79 W21G30    29.48R WCI  27
MARION         CLOUDY    43  36  75 SW12G22   29.62R
MT. VERNON     CLOUDY    39  32  75 W15       29.57R WCI  31
CENTRALIA*     CLOUDY    39  34  81 SW15G23   29.55R WCI  31
SALEM*           N/A     40  36  83 W17G25    29.54R
METROPOLIS*    CLOUDY    45  37  75 W10G21    29.65R
$$

ILZ067-068-072-073-078-083-087-091-241500-
SOUTHEAST ILLINOIS

CITY           SKY/WX    TMP DP  RH WIND       PRES   REMARKS
LAWRENCEVILLE  CLOUDY    43  38  82 W25G36    29.47R
FLORA*         SUNNY     39  34  81 W18G32    29.53R WCI  29
FAIRFIELD*     CLOUDY    40  35  80 W8G17     29.54R
HARRISBURG*    CLOUDY    42  36  79 W16G22    29.62R
ROBINSON*      CLOUDY    42  38  85 W23G29    29.46R
CARMI*         CLOUDY    43  39  86 W20G29    29.58R
$$

ABBREVIATIONS USED IN REMARKS
   TC - TEMPERATURE IN CELSIUS
  WCI - WIND CHILL INDEX
   HX - HEAT INDEX
  VSB - VISIBILITY
$$




USA.gov is the U.S. government's official web portal to all federal, state and local government web resources and services.